This is the latest recevied weather packets stored in our database for station/object PD2BVG. If no packets are shown the sender has not sent any weather packets the latest 10 day(s).
| Time | Temp. | Humidity | Pressure | Rain* | Wind** | Luminosity | Snow |
|---|---|---|---|---|---|---|---|
| 1788069840 | 17.78° C | 98% | 1008.8 hPa | 0 mm | - | 27 W/m² | - |
| 1788069778 | 17.78° C | 98% | 1008.8 hPa | 0 mm | - | 19 W/m² | - |
| 1788069718 | 17.78° C | 98% | 1008.7 hPa | 0 mm | - | 19 W/m² | - |
| 1788069657 | 17.78° C | 98% | 1008.8 hPa | 0 mm | - | 18 W/m² | - |
| 1788069604 | 17.22° C | 98% | 1008.7 hPa | 0 mm | - | 18 W/m² | - |
| 1788069538 | 17.22° C | 98% | 1008.7 hPa | 0 mm | - | 19 W/m² | - |
| 1788069477 | 17.22° C | 98% | 1008.7 hPa | 0 mm | - | 19 W/m² | - |
| 1788069417 | 17.22° C | 98% | 1008.6 hPa | 0 mm | - | 19 W/m² | - |
| 1788069358 | 17.22° C | 98% | 1008.6 hPa | 0 mm | - | 16 W/m² | - |
| 1788069297 | 17.22° C | 98% | 1008.6 hPa | 0 mm | - | 16 W/m² | - |
| 1788069237 | 17.22° C | 98% | 1008.6 hPa | 0 mm | - | 16 W/m² | - |
| 1788069177 | 17.22° C | 98% | 1008.6 hPa | 0 mm | - | 16 W/m² | - |
| 1788069117 | 17.22° C | 98% | 1008.6 hPa | 0 mm | - | 19 W/m² | - |
| 1788069057 | 17.22° C | 98% | 1008.6 hPa | 0 mm | - | 23 W/m² | - |
| 1788068997 | 17.22° C | 97% | 1008.6 hPa | 0 mm | - | 21 W/m² | - |
| 1788068937 | 17.22° C | 97% | 1008.6 hPa | 0 mm | - | 16 W/m² | - |
| 1788068876 | 17.22° C | 97% | 1008.6 hPa | 0 mm | - | 16 W/m² | - |
| 1788068817 | 17.22° C | 97% | 1008.7 hPa | 0.25 mm | - | 19 W/m² | - |
| 1788068757 | 17.22° C | 97% | 1008.6 hPa | 0.25 mm | - | 21 W/m² | - |
| 1788068697 | 17.78° C | 97% | 1008.6 hPa | 0.25 mm | - | 19 W/m² | - |
| 1788068640 | 17.78° C | 97% | 1008.7 hPa | 0.25 mm | - | 16 W/m² | - |
| 1788068579 | 17.78° C | 97% | 1008.5 hPa | 0.25 mm | - | 14 W/m² | - |
| 1788068518 | 17.78° C | 97% | 1008.6 hPa | 0.25 mm | - | 12 W/m² | - |
| 1788068458 | 17.78° C | 97% | 1008.6 hPa | 0.25 mm | - | 12 W/m² | - |
| 1788068397 | 17.78° C | 97% | 1008.6 hPa | 0.25 mm | - | 12 W/m² | - |
* Rain latest hour (hover to see other rain measurements)
** Current wind speed in m/s (hover to see current wind gust speed)